M I D A S
Marine Information and Data Acquisition System
Tripno 388 of the Zeeleeuw from 2002-09-30 08:13:18 to 2002-09-30 14:28:29
Back to CruiseResearch ActivitiesStationsMapUnderway DataData graphs

EquipmentUnitsComment
TimeDGPSUTC
LatitudeDGPSDM.mWGS84
LongitudeDGPSDM.mWGS84
HeadingGyrodeg 
SOGDGPSknotsSpeed over ground
COGDGPSdegCourse over ground
DepthEcho soundermeters200 kHz
Missing or incorrect values are displayed as -999
Navigation data collected by the RV Zeeleeuw from 2002-09-30 08:13:18 to 2002-09-30 14:28:29
                                                                                    Next 1000 lines
Time Latitude Longitude Heading SOG COG Depth
2002-09-30 08:13:29 51°13.664 2°55.947 142.7 1.1 141.5 8.5
2002-09-30 08:13:33 51°13.663 2°55.949 142.7 1.8 140.1 8.5
2002-09-30 08:13:39 51°13.659 2°55.953 142.8 2.3 140.4 8.6
2002-09-30 08:13:43 51°13.657 2°55.957 143.2 3 140 8.6
2002-09-30 08:13:50 51°13.652 2°55.963 143.2 3.3 140.3 8.6
2002-09-30 08:13:53 51°13.649 2°55.967 143.2 3.7 139.9 9
2002-09-30 08:14:02 51°13.642 2°55.977 141.8 4 139 9.5
2002-09-30 08:14:06 51°13.638 2°55.982 140.8 4.1 138.4 9.9
2002-09-30 08:14:10 51°13.635 2°55.987 139.8 4 136.9 11.1
2002-09-30 08:14:17 51°13.63 2°55.995 139 4 136.4 11.2
2002-09-30 08:14:22 51°13.626 2°56.002 138.3 4 135.4 11.6
2002-09-30 08:14:27 51°13.622 2°56.008 137.8 4 135.1 10.8
2002-09-30 08:14:32 51°13.618 2°56.014 137.3 3.9 134.5 10.8
2002-09-30 08:14:37 51°13.614 2°56.02 136.8 3.9 134.4 10.9
2002-09-30 08:14:46 51°13.608 2°56.031 136 3.9 133.1 11.1
2002-09-30 08:14:51 51°13.604 2°56.037 135.5 3.9 132.5 11
2002-09-30 08:14:55 51°13.601 2°56.042 135 3.8 132.4 11
2002-09-30 08:14:58 51°13.599 2°56.046 134.5 3.9 131.9 11
2002-09-30 08:15:06 51°13.593 2°56.057 134 3.9 131.7 11
2002-09-30 08:15:11 51°13.59 2°56.063 133.5 4 130.9 10.8
2002-09-30 08:15:16 51°13.586 2°56.07 133 4 130.3 11.4
2002-09-30 08:15:21 51°13.583 2°56.077 132.2 4.1 129.5 11
2002-09-30 08:15:26 51°13.579 2°56.084 131 4.1 128.5 11.2
2002-09-30 08:15:30 51°13.576 2°56.09 129.7 4.1 127.1 11.2
2002-09-30 08:15:36 51°13.572 2°56.099 128.3 4.2 125.8 11.3
2002-09-30 08:15:41 51°13.569 2°56.107 127.3 4.2 124.9 11.1
2002-09-30 08:15:46 51°13.566 2°56.114 126.3 4.2 124 11.2
2002-09-30 08:15:51 51°13.563 2°56.122 125.7 4.2 123.1 11.1
2002-09-30 08:15:55 51°13.56 2°56.129 124.8 4.2 122.4 11
2002-09-30 08:16:01 51°13.557 2°56.138 124.3 4.3 121.6 11.2
2002-09-30 08:16:06 51°13.553 2°56.146 123.7 4.3 121.1 11.4
2002-09-30 08:16:09 51°13.552 2°56.151 123 4.3 120.6 11.5
2002-09-30 08:16:14 51°13.549 2°56.16 122.3 4.4 119.1 11.4
2002-09-30 08:16:21 51°13.545 2°56.172 120 4.4 117.3 11.2
2002-09-30 08:16:26 51°13.543 2°56.181 114.8 4.4 114.1 11.3
2002-09-30 08:16:31 51°13.541 2°56.19 108.7 4.2 106.3 11.3
2002-09-30 08:16:35 51°13.541 2°56.197 102.5 4.1 100.4 10.3
2002-09-30 08:16:40 51°13.54 2°56.206 95.5 4 93.7 11.1
2002-09-30 08:16:46 51°13.541 2°56.216 89.2 3.8 87.6 9.7
2002-09-30 08:16:51 51°13.542 2°56.224 84 3.6 82.8 8.9
2002-09-30 08:16:56 51°13.542 2°56.231 80.2 3.4 78.7 9
2002-09-30 08:16:58 51°13.543 2°56.234 77.5 3.3 76 8.7
2002-09-30 08:17:06 51°13.545 2°56.244 75.7 3.2 74 9.1
2002-09-30 08:17:09 51°13.546 2°56.248 73.8 3 71 9.2
2002-09-30 08:17:16 51°13.548 2°56.256 71.5 2.7 68.2 8.6
2002-09-30 08:17:21 51°13.549 2°56.26 68.2 2.4 65 8.8
2002-09-30 08:17:26 51°13.551 2°56.264 63.7 2.2 62.1 8.9
2002-09-30 08:17:29 51°13.552 2°56.266 59.3 1.9 57.4 8.9
2002-09-30 08:17:34 51°13.553 2°56.269 55.7 1.7 54.2 8.9
2002-09-30 08:17:41 51°13.555 2°56.272 52.2 1.4 50.1 9
2002-09-30 08:17:46 51°13.556 2°56.274 48.8 1.2 47.9 9
2002-09-30 08:17:49 51°13.556 2°56.275 45.8 1 43.7 9.1
2002-09-30 08:17:55 51°13.557 2°56.276 43.2 0.8 40.6 9.1
2002-09-30 08:18:01 51°13.558 2°56.277 40.3 0.6 36.5 9
2002-09-30 08:18:06 51°13.559 2°56.277 38 0.3 31 9.1
2002-09-30 08:18:11 51°13.559 2°56.277 36 0.2 21.6 9.1
2002-09-30 08:18:15 51°13.559 2°56.277 34.3 0.1 242.9 9.1
2002-09-30 08:18:21 51°13.558 2°56.276 32.8 0.4 221.8 9.1
2002-09-30 08:18:26 51°13.557 2°56.275 31.5 0.5 216.9 9.1
2002-09-30 08:18:31 51°13.556 2°56.274 30.2 0.8 214.3 9
2002-09-30 08:18:36 51°13.555 2°56.273 28.8 0.9 212.1 9
2002-09-30 08:18:42 51°13.553 2°56.271 27.3 1.2 210.6 -999
2002-09-30 08:18:46 51°13.552 2°56.27 25.8 1.4 208.2 -999
2002-09-30 08:18:51 51°13.55 2°56.269 24.8 1.4 207.1 -999
2002-09-30 08:18:57 51°13.548 2°56.267 24.2 1.4 205.1 -999
2002-09-30 08:19:02 51°13.546 2°56.266 23.7 1.4 204 -999
2002-09-30 08:19:06 51°13.545 2°56.265 23.7 1.2 202.6 -999
2002-09-30 08:19:12 51°13.543 2°56.264 23.2 1.1 202.2 -999
2002-09-30 08:19:17 51°13.542 2°56.264 22.8 0.8 202.3 -999
2002-09-30 08:19:20 51°13.542 2°56.263 21.8 0.6 203.9 8.9
2002-09-30 08:19:26 51°13.541 2°56.263 20.2 0.3 209.3 8.9
2002-09-30 08:19:31 51°13.542 2°56.263 17.7 0.1 226.4 8.9
2002-09-30 08:19:36 51°13.542 2°56.263 15 0.3 359.6 8.9
2002-09-30 08:19:41 51°13.543 2°56.263 11.8 0.6 5 8.9
2002-09-30 08:19:46 51°13.544 2°56.263 8.3 0.6 3 9
2002-09-30 08:19:51 51°13.545 2°56.263 5.7 0.7 1.2 9
2002-09-30 08:19:56 51°13.546 2°56.263 4.2 0.6 3.1 9
2002-09-30 08:20:01 51°13.547 2°56.263 2.8 0.6 5.4 9
2002-09-30 08:20:06 51°13.547 2°56.263 1.7 0.5 5.7 9
2002-09-30 08:20:10 51°13.548 2°56.263 0.7 0.4 7.2 8.9
2002-09-30 08:20:14 51°13.548 2°56.263   0.4 10.8 9
2002-09-30 08:20:21 51°13.549 2°56.264 359.7 0.2 24 9
2002-09-30 08:20:25 51°13.548 2°56.264 359.5 0.1 69.7 9
2002-09-30 08:20:29 51°13.548 2°56.264 359.3 0.2 152.8 9
2002-09-30 08:20:34 51°13.548 2°56.264 359.7 0.4 163.8 9.1
2002-09-30 08:20:41 51°13.547 2°56.264 359.8 0.6 168.4 9.1
2002-09-30 08:20:46 51°13.545 2°56.265 0.2 0.8 171.7 9.1
2002-09-30 08:20:49 51°13.545 2°56.265 0.5 0.9 172.7 9
2002-09-30 08:20:54 51°13.543 2°56.265 1 1 173.7 9
2002-09-30 08:21:02 51°13.541 2°56.265 1.7 1.2 174.8 -999
2002-09-30 08:21:07 51°13.539 2°56.265 2.3 1.3 177.9 -999
2002-09-30 08:21:11 51°13.537 2°56.265 3 1.4 179.4 -999
2002-09-30 08:21:17 51°13.535 2°56.265 3.7 1.3 180.4 -999
2002-09-30 08:21:22 51°13.533 2°56.265 4.2 1.3 181.4 -999
2002-09-30 08:21:27 51°13.532 2°56.265 4.3 1.1 182.9 -999
2002-09-30 08:21:31 51°13.531 2°56.265 4.2 0.9 185.9 -999
2002-09-30 08:21:35 51°13.53 2°56.265 3.3 0.7 188.2 -999
2002-09-30 08:21:42 51°13.529 2°56.264 1.8 0.5 190.8 -999
2002-09-30 08:21:46 51°13.529 2°56.264   0.3 201 -999
2002-09-30 08:21:51 51°13.528 2°56.264 358.2 0.2 221.5 8.6
2002-09-30 08:21:55 51°13.529 2°56.263 356.2 0.1 300 8.4
2002-09-30 08:22:01 51°13.529 2°56.263 354 0.3 329.6 8.3
2002-09-30 08:22:06 51°13.53 2°56.262 351.3 0.5 334.5 8.2
2002-09-30 08:22:11 51°13.53 2°56.261 348 0.7 334.1 8.1
2002-09-30 08:22:16 51°13.532 2°56.261 344 0.9 337.2 8.3
2002-09-30 08:22:21 51°13.533 2°56.26 340.5 0.9 333.7 8.7
2002-09-30 08:22:26 51°13.534 2°56.259 338.3 0.9 333.5 8.7
2002-09-30 08:22:32 51°13.535 2°56.258 336.5 0.8 332.6 8.6
2002-09-30 08:22:36 51°13.535 2°56.258 334.8 0.5 337.7 8.6
2002-09-30 08:22:40 51°13.536 2°56.258 333.2 0.3 343.6 8.6
2002-09-30 08:22:47 51°13.536 2°56.258 332.2 0.1 58.6 8.6
2002-09-30 08:22:52 51°13.535 2°56.259 331.5 0.3 134.5 8.6
2002-09-30 08:22:54 51°13.535 2°56.259 331 0.5 140.1 8.7
2002-09-30 08:23:02 51°13.533 2°56.261 330.7 0.7 145.1 8.4
2002-09-30 08:23:07 51°13.532 2°56.261 331 0.7 146.8 8.2
2002-09-30 08:23:11 51°13.532 2°56.262 331.2 0.7 146.6 -999
2002-09-30 08:23:19 51°13.531 2°56.262 331.2 0.6 143.4 -999
2002-09-30 08:23:23 51°13.531 2°56.262 330.5 0.4 145.7 -999
2002-09-30 08:23:28 51°13.53 2°56.261 329.5 0.2 147.1 -999
2002-09-30 08:23:34 51°13.531 2°56.259 327.5 0.1 310 -999
2002-09-30 08:23:39 51°13.531 2°56.257 324.8 0.3 315.8 -999
2002-09-30 08:23:44 51°13.533 2°56.256 321 0.5 315.1 -999
2002-09-30 08:23:49 51°13.534 2°56.254 316.8 0.8 311.5 4.7
2002-09-30 08:23:51 51°13.534 2°56.253 312.8 1.1 309.1 6.1
2002-09-30 08:23:57 51°13.535 2°56.251 308.8 1.2 307.7 9.1
2002-09-30 08:24:03 51°13.537 2°56.247 304 1.5 303.3 9
2002-09-30 08:24:08 51°13.538 2°56.244 300.8 1.8 299.2 9
2002-09-30 08:24:12 51°13.539 2°56.241 298.2 2.1 295.6 8.9
2002-09-30 08:24:18 51°13.541 2°56.235 296.5 2.3 294 9.1
2002-09-30 08:24:22 51°13.542 2°56.231 295.3 2.5 292.1 9
2002-09-30 08:24:28 51°13.543 2°56.224 294.2 2.6 291.4 9.1
2002-09-30 08:24:33 51°13.545 2°56.218 293.2 2.8 289.7 8.6
2002-09-30 08:24:38 51°13.546 2°56.212 292.8 3 289.4 8.9
2002-09-30 08:24:42 51°13.547 2°56.207 292.7 3.2 289 8.9
2002-09-30 08:24:45 51°13.548 2°56.202 292.2 3.3 289.3 9.3
2002-09-30 08:24:51 51°13.55 2°56.193 291.5 3.5 288.2 10.1
2002-09-30 08:24:54 51°13.551 2°56.189 291.3 3.6 288.8 8.9
2002-09-30 08:25:03 51°13.554 2°56.175 291.8 3.7 288.7 9.6
2002-09-30 08:25:08 51°13.556 2°56.167 292.8 3.8 289.5 11.2
2002-09-30 08:25:11 51°13.557 2°56.162 294 4 290.1 11.2
2002-09-30 08:25:17 51°13.559 2°56.152 295.8 4.1 290.9 10.9
2002-09-30 08:25:23 51°13.562 2°56.142 296.7 4.1 291.8 10.8
2002-09-30 08:25:27 51°13.564 2°56.135 296.5 4.2 292.4 10.6
2002-09-30 08:25:33 51°13.567 2°56.125 296.3 4.3 292.2 11.1
2002-09-30 08:25:37 51°13.569 2°56.118 297 4.4 292.8 11.1
2002-09-30 08:25:42 51°13.571 2°56.108 297.5 4.5 293.1 11.1
2002-09-30 08:25:46 51°13.573 2°56.101 298.2 4.5 293.6 11.1
2002-09-30 08:25:51 51°13.576 2°56.091 299 4.6 294.4 10.8
2002-09-30 08:25:58 51°13.58 2°56.079 299.5 4.7 295.3 11.2
2002-09-30 08:26:03 51°13.582 2°56.069 299.5 4.7 295.5 11
2002-09-30 08:26:08 51°13.585 2°56.06 299.7 4.8 296.2 10.9
2002-09-30 08:26:13 51°13.588 2°56.05 299.3 4.8 296.2 11
2002-09-30 08:26:17 51°13.591 2°56.042 300 4.9 296.4 10.8
2002-09-30 08:26:23 51°13.595 2°56.031 301.5 4.9 297.3 11
2002-09-30 08:26:27 51°13.597 2°56.023 303.2 4.9 298.5 11.2
2002-09-30 08:26:32 51°13.601 2°56.014 303.5 5 299.6 11
2002-09-30 08:26:37 51°13.604 2°56.004 303.2 5 299.4 10.8
2002-09-30 08:26:43 51°13.608 2°55.993 303.5 5 300 11.4
2002-09-30 08:26:48 51°13.612 2°55.983 304 5 300.1 11.2
2002-09-30 08:26:52 51°13.615 2°55.976 304.8 5.1 301 11.2
2002-09-30 08:26:57 51°13.619 2°55.966 305.3 5.1 301.5 10.8
2002-09-30 08:27:02 51°13.623 2°55.956 305.2 5.1 301.9 11.1
2002-09-30 08:27:06 51°13.626 2°55.948 304.7 5.1 301.6 10.8
2002-09-30 08:27:11 51°13.63 2°55.939 304.5 5.2 301.5 10.7
2002-09-30 08:27:18 51°13.635 2°55.925 304.5 5.2 301 10.7
2002-09-30 08:27:22 51°13.638 2°55.917 304.5 5.2 301.1 10.8
2002-09-30 08:27:26 51°13.641 2°55.909 304.3 5.2 301.3 10.9
2002-09-30 08:27:31 51°13.645 2°55.899 305 5.2 301.6 11
2002-09-30 08:27:37 51°13.649 2°55.887 306 5.2 302.5 10.8
2002-09-30 08:27:42 51°13.653 2°55.877 307 5.3 303.1 10.8
2002-09-30 08:27:46 51°13.656 2°55.869 307.2 5.3 303.2 11
2002-09-30 08:27:51 51°13.66 2°55.86 307 5.3 302.9 10.9
2002-09-30 08:27:57 51°13.665 2°55.848 306.5 5.3 302.4 10.8
2002-09-30 08:28:03 51°13.67 2°55.836 306.7 5.3 302.1 10.7
2002-09-30 08:28:07 51°13.673 2°55.828 306.8 5.3 302.4 10.7
2002-09-30 08:28:11 51°13.677 2°55.82 307.7 5.4 302.8 11.2
2002-09-30 08:28:16 51°13.681 2°55.81 308.8 5.4 303.6 10.5
2002-09-30 08:28:21 51°13.685 2°55.801 310.3 5.4 304.4 11.7
2002-09-30 08:28:28 51°13.691 2°55.787 312 5.4 305.9 12.8
2002-09-30 08:28:31 51°13.694 2°55.782 314 5.4 307.8 14.1
2002-09-30 08:28:38 51°13.701 2°55.769 316.2 5.4 309.7 14.2
2002-09-30 08:28:43 51°13.706 2°55.761 318.8 5.4 312.1 14.2
2002-09-30 08:28:46 51°13.709 2°55.756 320.5 5.3 314.2 13.7
2002-09-30 08:28:52 51°13.715 2°55.746 321.5 5.3 315.3 12.5
2002-09-30 08:28:58 51°13.722 2°55.736 322 5.3 316.9 11.7
2002-09-30 08:29:02 51°13.726 2°55.73 322.2 5.3 317.2 11.1
2002-09-30 08:29:07 51°13.732 2°55.722 322.8 5.3 318 11.4
2002-09-30 08:29:10 51°13.735 2°55.717 323.8 5.3 318.8 11.2
2002-09-30 08:29:17 51°13.743 2°55.707 325.3 5.4 319.9 11.1
2002-09-30 08:29:22 51°13.749 2°55.7 327.3 5.3 321.3 11.1
2002-09-30 08:29:27 51°13.755 2°55.693 329.5 5.3 323.8 10.9
2002-09-30 08:29:32 51°13.761 2°55.686 331.7 5.4 325.6 11.3
2002-09-30 08:29:34 51°13.764 2°55.683 333 5.4 327.2 11.3
2002-09-30 08:29:42 51°13.774 2°55.674 334 5.5 328.6 11.4
2002-09-30 08:29:46 51°13.779 2°55.669 335.2 5.6 330.1 11.4
2002-09-30 08:29:49 51°13.784 2°55.666 336.7 5.6 332.1 11.4
2002-09-30 08:29:57 51°13.795 2°55.657 338 5.6 334 11.2
2002-09-30 08:30:07 51°13.81 2°55.647 338.8 5.7 335.6 11.3
2002-09-30 08:30:11 51°13.815 2°55.643 338.5 5.8 335.6 11.3
2002-09-30 08:30:17 51°13.824 2°55.636 338.3 5.9 335.5 11.2
2002-09-30 08:30:22 51°13.832 2°55.63 338 5.9 335 11.2
2002-09-30 08:30:27 51°13.839 2°55.625 337.7 6 334.7 11.1
2002-09-30 08:30:32 51°13.847 2°55.619 337.3 6 334.4 10.9
2002-09-30 08:30:37 51°13.854 2°55.613 337.3 6.1 334.1 10.8
2002-09-30 08:30:42 51°13.862 2°55.607 337.5 6.1 334.3 10.9
2002-09-30 08:30:47 51°13.87 2°55.601 337.7 6.2 334.2 11.1
2002-09-30 08:30:52 51°13.878 2°55.596 337.8 6.2 334.2 11.3
2002-09-30 08:31:02 51°13.893 2°55.584 337.8 6.3 334.4 11.2
2002-09-30 08:31:07 51°13.902 2°55.578 337.7 6.4 334.1 10.9
2002-09-30 08:31:12 51°13.91 2°55.572 337.8 6.4 334.2 11.1
2002-09-30 08:31:17 51°13.917 2°55.565 337.8 6.4 334.1 11.2
2002-09-30 08:31:23 51°13.927 2°55.558 338 6.4 334.2 11.2
2002-09-30 08:31:26 51°13.932 2°55.554 338.3 6.5 334.3 11.2
2002-09-30 08:31:30 51°13.938 2°55.549 338.8 6.5 334.7 11.2
2002-09-30 08:31:37 51°13.95 2°55.541 338.7 6.5 334.9 11.1
2002-09-30 08:31:42 51°13.958 2°55.534 338.3 6.5 335 10.7
2002-09-30 08:31:46 51°13.964 2°55.529 338.2 6.5 334.6 10.7
2002-09-30 08:31:52 51°13.974 2°55.522 338.7 6.5 334.9 11.1
2002-09-30 08:31:57 51°13.983 2°55.516 339 6.5 335.1 10.9
2002-09-30 08:32:02 51°13.991 2°55.51 339.3 6.5 335.6 10.7
2002-09-30 08:32:05 51°13.996 2°55.506 339.3 6.5 335.5 10.7
2002-09-30 08:32:09 51°14.002 2°55.501 339.7 6.5 335.8 10.9
2002-09-30 08:32:17 51°14.016 2°55.492 339.3 6.6 335.6 11.2
2002-09-30 08:32:22 51°14.024 2°55.486 339.7 6.6 335.8 10.9
2002-09-30 08:32:26 51°14.031 2°55.481 339.8 6.6 335.8 11.2
2002-09-30 08:32:31 51°14.039 2°55.475 340.2 6.6 335.8 10.8
2002-09-30 08:32:35 51°14.046 2°55.47 340.2 6.6 335.9 11.1
2002-09-30 08:32:42 51°14.057 2°55.462 339.8 6.6 335.8 10.9
2002-09-30 08:32:46 51°14.064 2°55.457 340.2 6.6 336.2 10.7
2002-09-30 08:32:51 51°14.072 2°55.452 340.5 6.6 336.3 10.8
2002-09-30 08:32:57 51°14.082 2°55.444 340.7 6.7 336.5 10.5
2002-09-30 08:33:02 51°14.091 2°55.438 340 6.7 336.2 11
2002-09-30 08:33:07 51°14.1 2°55.432 339.3 6.7 336.1 11.1
2002-09-30 08:33:11 51°14.106 2°55.427 338.8 6.8 335.6 10.5
2002-09-30 08:33:17 51°14.117 2°55.42 338.5 6.8 335.2 10.6
2002-09-30 08:33:22 51°14.125 2°55.413 338 6.8 334.7 10.6
2002-09-30 08:33:27 51°14.134 2°55.406 337.5 6.8 334.3 10.8
2002-09-30 08:33:31 51°14.14 2°55.401 337 6.8 333.5 10.7
2002-09-30 08:33:37 51°14.151 2°55.392 336.7 6.9 333 11.1
2002-09-30 08:33:42 51°14.159 2°55.385 336.2 7 332.5 10.9
2002-09-30 08:33:47 51°14.168 2°55.378 335.7 7.1 332.1 10.8
2002-09-30 08:33:52 51°14.177 2°55.37 335.2 7.3 331.4 11.1
2002-09-30 08:33:57 51°14.186 2°55.362 334 7.4 330.4 11.1
2002-09-30 08:34:02 51°14.195 2°55.353 332.5 7.5 329.2 10.9
2002-09-30 08:34:07 51°14.204 2°55.344 330.8 7.6 327.9 10.9
2002-09-30 08:34:11 51°14.211 2°55.336 328.8 7.7 326 11
2002-09-30 08:34:17 51°14.222 2°55.323 327 7.8 323.8 11
2002-09-30 08:34:22 51°14.23 2°55.312 325.2 7.9 321.8 10.9
2002-09-30 08:34:26 51°14.237 2°55.303 323 8 319.9 11
2002-09-30 08:34:31 51°14.245 2°55.291 321 8.1 317.8 11
2002-09-30 08:34:37 51°14.255 2°55.276 319.5 8.1 316.4 11
2002-09-30 08:34:42 51°14.263 2°55.263 317.7 8.2 314.7 10.9
2002-09-30 08:34:46 51°14.269 2°55.252 316.5 8.3 313.2 10.9
2002-09-30 08:34:52 51°14.278 2°55.236 314.8 8.3 311.4 11
2002-09-30 08:34:56 51°14.284 2°55.224 313.2 8.3 310 11
2002-09-30 08:35:03 51°14.294 2°55.204 311.5 8.4 308.5 11
2002-09-30 08:35:07 51°14.3 2°55.192 310.8 8.4 307.3 11
2002-09-30 08:35:13 51°14.308 2°55.173 310.2 8.4 306.6 11
2002-09-30 08:35:17 51°14.313 2°55.161 309.5 8.4 305.8 10.9
2002-09-30 08:35:22 51°14.32 2°55.146 309 8.5 305.1 10.9
2002-09-30 08:35:27 51°14.327 2°55.13 308.5 8.5 304.6 10.9
2002-09-30 08:35:31 51°14.332 2°55.118 308 8.5 304.2 10.8
2002-09-30 08:35:34 51°14.336 2°55.109 307.5 8.6 303.8 10.8
2002-09-30 08:35:42 51°14.347 2°55.083 307 8.7 303.4 11.2
2002-09-30 08:35:47 51°14.353 2°55.066 307.2 8.9 303.1 11.4
2002-09-30 08:35:51 51°14.359 2°55.053 307.7 9 303.2 11
2002-09-30 08:35:57 51°14.368 2°55.033 308 9.2 303.5 10.7
2002-09-30 08:36:01 51°14.373 2°55.019 308.2 9.4 303.9 10.7
2002-09-30 08:36:07 51°14.382 2°54.998 308.7 9.6 304 10.7
2002-09-30 08:36:13 51°14.392 2°54.976 308.7 9.8 303.9 10.7
2002-09-30 08:36:17 51°14.398 2°54.961 308 10 303.5 10.7
2002-09-30 08:36:22 51°14.406 2°54.942 307.3 10.2 302.8 10.7
2002-09-30 08:36:25 51°14.41 2°54.93 306.5 10.3 301.8 10.7
2002-09-30 08:36:31 51°14.419 2°54.907 305 10.4 300.7 10.6
2002-09-30 08:36:34 51°14.423 2°54.894 302.2 10.5 298.4 10.7
2002-09-30 08:36:43 51°14.434 2°54.856 298.7 10.5 295.4 10.7
2002-09-30 08:36:47 51°14.438 2°54.839 294.8 10.5 292.6 10.7
2002-09-30 08:36:51 51°14.442 2°54.821 291.2 10.6 288.6 10.7
2002-09-30 08:36:57 51°14.446 2°54.794 289.3 10.6 286.1 10.7
2002-09-30 08:37:03 51°14.45 2°54.766 287 10.6 284 10.6
2002-09-30 08:37:07 51°14.453 2°54.748 284.3 10.7 281.6 10.6
2002-09-30 08:37:13 51°14.455 2°54.72 281.3 10.7 278.7 10.6
2002-09-30 08:37:17 51°14.456 2°54.701 278.3 10.7 276.2 10.5
2002-09-30 08:37:22 51°14.457 2°54.678 276 10.7 273.8 10.5
2002-09-30 08:37:25 51°14.457 2°54.663 275.8 10.7 273 10.5
2002-09-30 08:37:31 51°14.458 2°54.635 274.7 10.7 272.3 10.4
2002-09-30 08:37:34 51°14.458 2°54.621 274.2 10.8 271.6 10.5
2002-09-30 08:37:42 51°14.459 2°54.583 274.7 10.8 271.1 10.4
2002-09-30 08:37:47 51°14.459 2°54.559 273.8 10.8 270.8 10.4
2002-09-30 08:37:51 51°14.458 2°54.54 270.8 10.8 268.4 10.4
2002-09-30 08:37:57 51°14.457 2°54.512 266.5 10.7 265.6 10.4
2002-09-30 08:38:02 51°14.454 2°54.489 261.7 10.6 260.2 10.4
2002-09-30 08:38:06 51°14.45 2°54.471 256.8 10.6 255.7 10.4
2002-09-30 08:38:12 51°14.445 2°54.444 252.2 10.5 251.5 10.4
2002-09-30 08:38:17 51°14.439 2°54.423 248 10.6 247.9 10.3
2002-09-30 08:38:21 51°14.433 2°54.405 246 10.8 244.9 10.2
2002-09-30 08:38:27 51°14.425 2°54.379 245 11 243.6 10.2
2002-09-30 08:38:33 51°14.416 2°54.353 244 11.1 242.5 10.2
2002-09-30 08:38:39 51°14.407 2°54.327 243.2 11.2 241.4 10
2002-09-30 08:38:43 51°14.401 2°54.31 242.7 11.3 240.8 10.1
2002-09-30 08:38:47 51°14.395 2°54.292 242.3 11.4 240.4 10.1
2002-09-30 08:38:51 51°14.388 2°54.274 242 11.5 240.1 10
2002-09-30 08:38:57 51°14.379 2°54.248 241.8 11.6 239.9 10
2002-09-30 08:39:03 51°14.369 2°54.221 242 11.7 239.8 9.9
2002-09-30 08:39:07 51°14.362 2°54.203 242.2 11.7 239.9 9.9
2002-09-30 08:39:11 51°14.356 2°54.185 242.7 11.8 240.2 9.9
2002-09-30 08:39:17 51°14.346 2°54.156 243 12 240.7 9.9
2002-09-30 08:39:21 51°14.34 2°54.138 243.5 12.2 241.3 9.8
2002-09-30 08:39:27 51°14.33 2°54.109 243.8 12.3 241.7 9.8
2002-09-30 08:39:31 51°14.323 2°54.089 244.2 12.4 242 9.8
2002-09-30 08:39:37 51°14.314 2°54.06 244.2 12.5 242.1 9.8
2002-09-30 08:39:43 51°14.304 2°54.03 244.2 12.6 242.1 9.8
2002-09-30 08:39:47 51°14.297 2°54.011 244 12.6 242.1 9.8
2002-09-30 08:39:51 51°14.291 2°53.991 243.7 12.7 242 9.8
2002-09-30 08:39:57 51°14.281 2°53.961 243.7 12.7 241.8 9.8
2002-09-30 08:40:01 51°14.274 2°53.942 243.5 12.7 241.6 9.9
2002-09-30 08:40:07 51°14.264 2°53.912 243.5 12.7 241.6 9.7
2002-09-30 08:40:13 51°14.254 2°53.882 243.8 12.7 241.8 9.8
2002-09-30 08:40:14 51°14.252 2°53.877 244.2 12.7 242.1 9.8
2002-09-30 08:40:23 51°14.238 2°53.832 244.5 12.8 242.6 9.8
2002-09-30 08:40:27 51°14.231 2°53.812 244.7 12.8 242.5 9.9
2002-09-30 08:40:29 51°14.228 2°53.802 244.8 12.9 242.7 9.9
2002-09-30 08:40:35 51°14.218 2°53.772 244.3 12.9 242.4 9.9
2002-09-30 08:40:43 51°14.204 2°53.731 243.3 12.9 241.6 9.9
2002-09-30 08:40:47 51°14.197 2°53.711 242 13 240.6 9.9
2002-09-30 08:40:51 51°14.189 2°53.691 241.5 13 239.4 9.9
2002-09-30 08:40:57 51°14.178 2°53.662 240.5 13.1 238.8 9.9
2002-09-30 08:41:02 51°14.168 2°53.637 239.7 13.1 237.7 9.9
2002-09-30 08:41:06 51°14.16 2°53.618 239.2 13.1 237.4 9.8
2002-09-30 08:41:11 51°14.15 2°53.594 238.5 13.1 236.8 9.9
2002-09-30 08:41:17 51°14.138 2°53.565 238.3 13.1 236.6 10
2002-09-30 08:41:22 51°14.128 2°53.54 238.5 13.2 236.4 10
2002-09-30 08:41:27 51°14.118 2°53.516 238 13.2 236.1 10
2002-09-30 08:41:31 51°14.11 2°53.497 238.2 13.2 235.8 10
2002-09-30 08:41:37 51°14.097 2°53.468 238.3 13.2 236.3 10
2002-09-30 08:41:42 51°14.087 2°53.443 239 13.2 236.7 10
2002-09-30 08:41:47 51°14.078 2°53.419 239.3 13.2 237.3 10
2002-09-30 08:41:52 51°14.068 2°53.394 239.7 13.2 237.7 10
2002-09-30 08:41:57 51°14.058 2°53.369 240.3 13.2 238.4 10.1
2002-09-30 08:42:02 51°14.049 2°53.344 240.8 13.2 238.7 10.1
2002-09-30 08:42:07 51°14.039 2°53.319 241.3 13.2 238.8 10
2002-09-30 08:42:11 51°14.032 2°53.299 241.7 13.3 239.1 10.1
2002-09-30 08:42:17 51°14.02 2°53.269 242 13.3 239.4 10.1
2002-09-30 08:42:22 51°14.011 2°53.244 242.3 13.3 239.6 10.1
2002-09-30 08:42:27 51°14.002 2°53.218 242.7 13.3 239.9 10.2
2002-09-30 08:42:32 51°13.992 2°53.193 243 13.3 240.2 10.3
2002-09-30 08:42:36 51°13.985 2°53.172 243.3 13.3 240.8 10.3
2002-09-30 08:42:43 51°13.973 2°53.136 243.3 13.3 240.9 10.3
2002-09-30 08:42:47 51°13.966 2°53.115 243.5 13.3 241.1 10.4
2002-09-30 08:42:51 51°13.958 2°53.095 243.7 13.3 241.1 10.5
2002-09-30 08:42:55 51°13.952 2°53.074 243.7 13.3 241.3 10.4
2002-09-30 08:43:03 51°13.937 2°53.033 243.7 13.3 241.4 10.5
2002-09-30 08:43:07 51°13.93 2°53.012 243.8 13.3 241.5 10.5
2002-09-30 08:43:12 51°13.921 2°52.986 243.8 13.4 241.5 10.5
2002-09-30 08:43:17 51°13.913 2°52.96 243.8 13.3 241.5 10.6
2002-09-30 08:43:22 51°13.904 2°52.934 243.7 13.4 241.5 10.6
2002-09-30 08:43:26 51°13.897 2°52.914 243.5 13.3 241.3 10.6
2002-09-30 08:43:32 51°13.886 2°52.883 243.3 13.3 241.2 10.6
2002-09-30 08:43:36 51°13.878 2°52.862 243 13.3 240.8 10.6
2002-09-30 08:43:42 51°13.868 2°52.832 242.8 13.3 240.6 10.6
2002-09-30 08:43:47 51°13.859 2°52.806 242.3 13.3 240.2 10.7
2002-09-30 08:43:53 51°13.847 2°52.775 242.3 13.3 240.1 10.7
2002-09-30 08:43:57 51°13.84 2°52.755 242.5 13.3 240.3 10.7
2002-09-30 08:44:02 51°13.831 2°52.73 242.7 13.3 240.4 10.7
2002-09-30 08:44:07 51°13.822 2°52.704 243 13.3 240.7 10.7
2002-09-30 08:44:12 51°13.813 2°52.678 243.5 13.3 241 10.7
2002-09-30 08:44:17 51°13.805 2°52.653 243.8 13.3 241.4 10.8
2002-09-30 08:44:22 51°13.796 2°52.626 244.3 13.3 241.8 10.7
2002-09-30 08:44:27 51°13.787 2°52.6 244.7 13.3 242.2 10.8
2002-09-30 08:44:31 51°13.781 2°52.58 244.8 13.3 242.5 10.8
2002-09-30 08:44:37 51°13.77 2°52.548 245.2 13.3 242.6 10.8
2002-09-30 08:44:42 51°13.762 2°52.522 245.2 13.3 242.8 10.7
2002-09-30 08:44:46 51°13.755 2°52.501 245 13.3 242.7 10.8
2002-09-30 08:44:51 51°13.747 2°52.475 245.2 13.3 242.6 10.9
2002-09-30 08:44:56 51°13.738 2°52.449 244.8 13.4 242.5 10.9
2002-09-30 08:45:01 51°13.73 2°52.423 244.8 13.4 242.5 10.9
2002-09-30 08:45:07 51°13.721 2°52.392 244.8 13.5 242.5 10.9
2002-09-30 08:45:11 51°13.713 2°52.37 245 13.6 242.5 11
2002-09-30 08:45:17 51°13.703 2°52.338 244.7 13.7 242.4 11
2002-09-30 08:45:22 51°13.694 2°52.311 244.5 13.7 242.3 10.9
2002-09-30 08:45:25 51°13.688 2°52.295 244.3 13.7 242 10.8
2002-09-30 08:45:30 51°13.679 2°52.268 244.3 13.8 242 10.8
2002-09-30 08:45:37 51°13.667 2°52.23 244.3 13.8 242 10.9
2002-09-30 08:45:42 51°13.657 2°52.203 244.2 13.8 241.8 10.9
2002-09-30 08:45:46 51°13.65 2°52.181 243.8 13.8 241.6 11
2002-09-30 08:45:52 51°13.639 2°52.149 243.2 13.9 241.2 10.9
2002-09-30 08:45:57 51°13.629 2°52.122 242.7 13.9 240.7 10.9
2002-09-30 08:46:02 51°13.619 2°52.095 242.5 13.9 240.2 10.9
2002-09-30 08:46:07 51°13.61 2°52.069 242.5 13.9 240.1 10.9
2002-09-30 08:46:11 51°13.602 2°52.047 242.7 13.9 240.2 10.9
2002-09-30 08:46:17 51°13.591 2°52.015 243.2 13.9 240.6 10.9
2002-09-30 08:46:22 51°13.581 2°51.988 243.5 13.9 241.1 10.9
2002-09-30 08:46:27 51°13.572 2°51.961 243.7 13.9 241.3 10.9
2002-09-30 08:46:31 51°13.565 2°51.939 243.8 14 241.5 11
2002-09-30 08:46:35 51°13.557 2°51.917 243.7 14 241.5 11
2002-09-30 08:46:42 51°13.544 2°51.879 243.7 14 241.5 10.9
2002-09-30 08:46:46 51°13.537 2°51.858 243.7 14 241.4 10.9
2002-09-30 08:46:51 51°13.527 2°51.831 243.7 14 241.3 10.9
2002-09-30 08:46:56 51°13.518 2°51.804 243.7 14 241.3 10.9
2002-09-30 08:47:01 51°13.509 2°51.777 243.3 13.9 241.1 11
2002-09-30 08:47:07 51°13.497 2°51.744 243.5 13.9 241.1 11
2002-09-30 08:47:10 51°13.492 2°51.728 243.5 14 241.1 11
2002-09-30 08:47:17 51°13.479 2°51.69 243.5 14 241.1 11
2002-09-30 08:47:22 51°13.47 2°51.663 243.3 14 241 11
2002-09-30 08:47:27 51°13.46 2°51.637 243.3 14 240.9 11
2002-09-30 08:47:31 51°13.453 2°51.615 243.2 14 240.8 11
2002-09-30 08:47:35 51°13.446 2°51.594 243.5 14 240.9 11
2002-09-30 08:47:42 51°13.433 2°51.556 243.7 14 241.1 11.1
2002-09-30 08:47:47 51°13.424 2°51.529 243.8 14 241.3 11.1
2002-09-30 08:47:52 51°13.415 2°51.502 244.2 14 241.7 11.1
2002-09-30 08:47:55 51°13.409 2°51.485 244.8 14 242.1 11.1
2002-09-30 08:48:02 51°13.396 2°51.447 245 14 242.6 11.1
2002-09-30 08:48:07 51°13.387 2°51.419 245.2 14 242.6 11.1
2002-09-30 08:48:12 51°13.378 2°51.392 245 14 242.5 11
2002-09-30 08:48:17 51°13.369 2°51.364 245 14 242.7 11.1
2002-09-30 08:48:22 51°13.36 2°51.336 245.2 14 242.6 11.1
2002-09-30 08:48:25 51°13.354 2°51.32 245.2 14 242.7 11.1
2002-09-30 08:48:29 51°13.347 2°51.298 244.8 14 242.6 11.1
2002-09-30 08:48:34 51°13.338 2°51.27 244.7 14 242.3 11.1
2002-09-30 08:48:42 51°13.323 2°51.227 244.3 14 242 11.1
2002-09-30 08:48:47 51°13.314 2°51.2 244 14 241.7 11.1
2002-09-30 08:48:49 51°13.31 2°51.189 243.8 14 241.5 11.1
2002-09-30 08:48:57 51°13.295 2°51.145 243.8 14 241.5 11.3
2002-09-30 08:49:02 51°13.286 2°51.118 243.5 14 241.2 11.3
2002-09-30 08:49:06 51°13.279 2°51.096 243.3 14 241.1 11.3
2002-09-30 08:49:12 51°13.267 2°51.064 243.3 14 241 11.3
2002-09-30 08:49:17 51°13.258 2°51.037 243 14 240.8 11.3
2002-09-30 08:49:22 51°13.248 2°51.01 243 14 240.5 11.3
2002-09-30 08:49:26 51°13.241 2°50.988 242.8 14 240.4 11.4
2002-09-30 08:49:32 51°13.229 2°50.956 242.3 14 240.1 11.3
2002-09-30 08:49:37 51°13.22 2°50.929 242.8 14 240.2 11.3
2002-09-30 08:49:42 51°13.21 2°50.902 243 14 240.6 11.3
2002-09-30 08:49:47 51°13.2 2°50.875 243.2 14 240.8 11.4
2002-09-30 08:49:51 51°13.193 2°50.853 243.5 14 241.1 11.4
2002-09-30 08:49:57 51°13.182 2°50.82 243.8 14 241.4 11.4
2002-09-30 08:50:02 51°13.172 2°50.793 243.8 14 241.5 11.4
2002-09-30 08:50:07 51°13.163 2°50.766 244 14 241.7 11.4
2002-09-30 08:50:10 51°13.157 2°50.749 244.2 14 241.7 11.4
2002-09-30 08:50:17 51°13.144 2°50.711 243.8 14 241.6 11.4
2002-09-30 08:50:22 51°13.135 2°50.684 244 14.1 241.5 11.4
2002-09-30 08:50:27 51°13.126 2°50.656 244.2 14.1 241.5 11.5
2002-09-30 08:50:32 51°13.116 2°50.629 243.8 14 241.5 11.4
2002-09-30 08:50:37 51°13.107 2°50.602 244.2 14.1 241.6 11.4
2002-09-30 08:50:42 51°13.098 2°50.574 244.3 14.1 241.8 11.5
2002-09-30 08:50:47 51°13.089 2°50.547 244.2 14.1 241.7 11.5
2002-09-30 08:50:50 51°13.083 2°50.53 244.2 14.1 241.6 11.5
2002-09-30 08:50:57 51°13.07 2°50.492 244 14.1 241.5 11.5
2002-09-30 08:51:02 51°13.061 2°50.465 244 14.1 241.5 11.5
2002-09-30 08:51:07 51°13.052 2°50.438 244.3 14 241.5 11.5
2002-09-30 08:51:09 51°13.048 2°50.427 244.5 14 241.8 11.5
2002-09-30 08:51:17 51°13.033 2°50.383 244.7 14 242.1 11.5
2002-09-30 08:51:22 51°13.024 2°50.355 244.8 14 242.2 11.6
2002-09-30 08:51:27 51°13.015 2°50.328 244.8 14 242.4 11.6
2002-09-30 08:51:30 51°13.01 2°50.311 245 14 242.4 11.6
2002-09-30 08:51:37 51°12.997 2°50.273 244.7 14 242.3 11.6
2002-09-30 08:51:42 51°12.988 2°50.246 244.7 14 242.2 11.6
2002-09-30 08:51:45 51°12.983 2°50.229 244.5 14 241.9 11.6
2002-09-30 08:51:51 51°12.972 2°50.197 244 14 241.5 11.6
2002-09-30 08:51:54 51°12.966 2°50.18 243.5 14 241.1 11.6
2002-09-30 08:52:02 51°12.951 2°50.137 242.8 14 240.5 11.7
2002-09-30 08:52:07 51°12.941 2°50.11 242.3 14 240 11.7
2002-09-30 08:52:10 51°12.935 2°50.094 242.2 14 239.9 11.7
2002-09-30 08:52:17 51°12.921 2°50.057 242.3 14 240 11.7
2002-09-30 08:52:22 51°12.912 2°50.03 243 14 240.4 11.7
2002-09-30 08:52:26 51°12.904 2°50.008 243.3 14 240.9 11.7
2002-09-30 08:52:29 51°12.898 2°49.992 243.7 14 241.3 11.7
2002-09-30 08:52:35 51°12.887 2°49.959 244.2 14 241.6 11.7
2002-09-30 08:52:42 51°12.875 2°49.92 244.5 14 242.1 11.7
2002-09-30 08:52:47 51°12.866 2°49.893 244.8 14.1 242.3 11.7
2002-09-30 08:52:52 51°12.857 2°49.865 245.3 14 242.8 11.7
2002-09-30 08:52:55 51°12.852 2°49.849 245.3 14 242.9 11.7
2002-09-30 08:53:02 51°12.839 2°49.81 245.3 14 242.9 11.8
2002-09-30 08:53:07 51°12.83 2°49.782 244.8 14 242.7 11.8
2002-09-30 08:53:12 51°12.821 2°49.755 244.3 14 242.2 11.8
2002-09-30 08:53:17 51°12.812 2°49.728 243.7 14 241.8 11.8
2002-09-30 08:53:26 51°12.794 2°49.679 242.8 14 240.6 11.8
2002-09-30 08:53:30 51°12.787 2°49.658 242.2 14 240.1 11.8
2002-09-30 08:53:34 51°12.779 2°49.636 242 14 239.9 11.8
2002-09-30 08:53:40 51°12.767 2°49.604 242.3 14 240 11.8
2002-09-30 08:53:46 51°12.756 2°49.572 242.8 14 240.4 11.8
2002-09-30 08:53:51 51°12.746 2°49.544 243.3 14 240.7 11.8
2002-09-30 08:53:56 51°12.737 2°49.517 243.7 14 241.2 11.8
2002-09-30 08:54:01 51°12.728 2°49.49 244.7 14 242.1 11.8
2002-09-30 08:54:06 51°12.719 2°49.462 245.7 14 242.6 11.8
2002-09-30 08:54:11 51°12.711 2°49.434 246.3 14 243.6 11.9
2002-09-30 08:54:14 51°12.705 2°49.417 246.8 14 244.2 11.9
2002-09-30 08:54:21 51°12.694 2°49.378 247.3 14 244.8 11.9
2002-09-30 08:54:26 51°12.686 2°49.35 247.8 14 245.3 11.9
2002-09-30 08:54:31 51°12.678 2°49.322 248.5 14 245.8 11.9
2002-09-30 08:54:36 51°12.67 2°49.293 249.2 14 246.7 11.9
2002-09-30 08:54:39 51°12.666 2°49.276 249.7 14 247.1 12
2002-09-30 08:54:46 51°12.655 2°49.236 249.8 14 247.3 12
2002-09-30 08:54:50 51°12.649 2°49.213 249.7 14 247.2 12
2002-09-30 08:54:54 51°12.643 2°49.19 249.5 14 247.1 12.1
2002-09-30 08:55:00 51°12.634 2°49.156 249 14 246.8 12.1
2002-09-30 08:55:06 51°12.624 2°49.122 248.7 14.1 246.3 12.1
2002-09-30 08:55:10 51°12.618 2°49.099 248.3 14.1 245.9 12.1
2002-09-30 08:55:15 51°12.61 2°49.071 248.3 14 246 12.1
2002-09-30 08:55:21 51°12.6 2°49.037 248.2 14.1 245.9 12.1
2002-09-30 08:55:26 51°12.592 2°49.009 248.5 14.1 246.2 12.1
2002-09-30 08:55:31 51°12.585 2°48.98 248.7 14.1 246.2 12.1
2002-09-30 08:55:36 51°12.577 2°48.952 248.7 14.1 246.3 12.1
2002-09-30 08:55:39 51°12.572 2°48.935 248.8 14 246.4 12.2
2002-09-30 08:55:46 51°12.561 2°48.895 248.5 14 246.2 12.2
2002-09-30 08:55:51 51°12.553 2°48.867 248.3 14 246.1 12.2
2002-09-30 08:55:56 51°12.545 2°48.839 248.3 14 245.9 12.2
2002-09-30 08:56:01 51°12.537 2°48.81 248 14 245.7 12.2
2002-09-30 08:56:06 51°12.529 2°48.782 247.8 14 245.6 12.2
2002-09-30 08:56:10 51°12.523 2°48.76 247.5 14 245.3 12.3
2002-09-30 08:56:16 51°12.513 2°48.726 247.3 14 245.1 12.3
2002-09-30 08:56:21 51°12.505 2°48.698 247.5 14 245.1 12.3
2002-09-30 08:56:25 51°12.498 2°48.675 247.2 14 245 12.3
2002-09-30 08:56:29 51°12.491 2°48.653 247 14.1 244.7 12.4
2002-09-30 08:56:34 51°12.483 2°48.625 246.8 14.1 244.5 12.4
2002-09-30 08:56:39 51°12.474 2°48.597 246.7 14.1 244.4 12.4
2002-09-30 08:56:46 51°12.463 2°48.558 246.8 14 244.4 12.4
2002-09-30 08:56:50 51°12.456 2°48.536 246.7 14 244.4 12.4
2002-09-30 08:56:54 51°12.449 2°48.513 247.2 14 244.7 12.4
2002-09-30 08:56:59 51°12.441 2°48.485 247.7 14 245.1 12.4
2002-09-30 08:57:06 51°12.43 2°48.446 247.8 14 245.3 12.4
2002-09-30 08:57:10 51°12.423 2°48.423 248.5 14 245.6 12.5
2002-09-30 08:57:16 51°12.414 2°48.389 248.8 14 246 12.5
2002-09-30 08:57:21 51°12.406 2°48.36 249 14 246.2 12.5
2002-09-30 08:57:26 51°12.398 2°48.332 249.2 14.1 246.4 12.3
2002-09-30 08:57:29 51°12.393 2°48.315 249 14.1 246.3 12.5
2002-09-30 08:57:34 51°12.386 2°48.286 248.8 14.1 246.4 12.5
2002-09-30 08:57:41 51°12.375 2°48.246 248.7 14.1 246.3 12.5
2002-09-30 08:57:46 51°12.367 2°48.218 248.5 14.1 246.1 12.5
2002-09-30 08:57:51 51°12.359 2°48.189 248.3 14.1 245.8 12.5
2002-09-30 08:57:54 51°12.354 2°48.172 248.2 14.1 245.7 12.5
2002-09-30 08:58:00 51°12.344 2°48.138 248.2 14.1 245.7 12.5
2002-09-30 08:58:06 51°12.334 2°48.103 248.3 14.1 245.9 12.5
2002-09-30 08:58:10 51°12.328 2°48.081 248.2 14.1 245.8 12.5
2002-09-30 08:58:14 51°12.321 2°48.058 248.2 14.2 245.9 12.6
2002-09-30 08:58:19 51°12.313 2°48.029 248 14.1 245.7 12.5
2002-09-30 08:58:26 51°12.302 2°47.99 247.7 14.1 245.4 12.6
2002-09-30 08:58:30 51°12.295 2°47.967 247.5 14.2 245.2 12.6
2002-09-30 08:58:36 51°12.285 2°47.933 247.2 14.2 244.9 12.6
2002-09-30 08:58:41 51°12.277 2°47.905 246.7 14.1 244.3 12.7
2002-09-30 08:58:45 51°12.27 2°47.883 246.3 14.1 244 12.7
2002-09-30 08:58:50 51°12.261 2°47.855 246.2 14.1 243.8 12.6
2002-09-30 08:58:53 51°12.256 2°47.838 246.5 14.1 244 12.7
2002-09-30 08:59:02 51°12.241 2°47.787 246.8 14.1 244.3 12.7
2002-09-30 08:59:07 51°12.233 2°47.759 247.5 14.1 244.9 12.7
2002-09-30 08:59:12 51°12.224 2°47.731 247.7 14.1 245.2 12.7
2002-09-30 08:59:17 51°12.216 2°47.702 247.7 14.1 245.5 12.6
2002-09-30 08:59:22 51°12.208 2°47.674 248 14.1 245.5 12.6
2002-09-30 08:59:27 51°12.2 2°47.646 248.3 14.1 245.6 12.8
2002-09-30 08:59:31 51°12.194 2°47.623 248.2 14.1 245.9 12.8
2002-09-30 08:59:36 51°12.186 2°47.595 248.2 14.1 245.8 12.8
2002-09-30 08:59:42 51°12.176 2°47.56 248.7 14.1 246.1 12.8
2002-09-30 08:59:47 51°12.169 2°47.532 248.7 14.1 246.2 12.8
2002-09-30 08:59:49 51°12.165 2°47.52 248.7 14.1 246.3 12.8
2002-09-30 08:59:57 51°12.153 2°47.475 248.8 14.1 246.2 12.8
2002-09-30 09:00:02 51°12.145 2°47.447 248.7 14.1 246.2 12.8
2002-09-30 09:00:07 51°12.137 2°47.418 248.5 14.1 246.1 12.8
2002-09-30 09:00:11 51°12.131 2°47.396 248.7 14.1 246 12.8
2002-09-30 09:00:17 51°12.121 2°47.361 248.5 14.1 246 12.8
2002-09-30 09:00:22 51°12.114 2°47.333 248.2 14.1 245.8 12.8
2002-09-30 09:00:27 51°12.105 2°47.305 248.2 14.1 245.6 12.8
2002-09-30 09:00:32 51°12.097 2°47.277 247.8 14 245.5 12.8
2002-09-30 09:00:35 51°12.092 2°47.26 247.7 14 245.3 12.8
2002-09-30 09:00:42 51°12.081 2°47.22 247.7 14.1 245.3 12.8
2002-09-30 09:00:47 51°12.072 2°47.192 247.8 14.1 245.3 12.8
2002-09-30 09:00:53 51°12.063 2°47.158 248 14.1 245.5 12.8
2002-09-30 09:00:57 51°12.056 2°47.135 248 14.1 245.5 12.9
2002-09-30 09:01:02 51°12.048 2°47.107 248 14.1 245.6 12.8
2002-09-30 09:01:07 51°12.04 2°47.079 248 14.1 245.6 12.9
2002-09-30 09:01:12 51°12.032 2°47.05 248.2 14.1 245.8 12.9
2002-09-30 09:01:17 51°12.024 2°47.022 248.2 14.1 245.8 12.9
2002-09-30 09:01:22 51°12.016 2°46.994 248.8 14.1 246.3 12.9
2002-09-30 09:01:27 51°12.009 2°46.965 249.2 14.1 246.6 12.9
2002-09-30 09:01:31 51°12.003 2°46.942 249.5 14.1 247 12.9
2002-09-30 09:01:37 51°11.994 2°46.908 249.5 14.1 247 12.6
2002-09-30 09:01:42 51°11.986 2°46.879 249.7 14.1 247.1 12.9
2002-09-30 09:01:47 51°11.978 2°46.85 249.5 14.1 247.2 12.9
2002-09-30 09:01:51 51°11.972 2°46.827 249.7 14.1 247.4 12.9
2002-09-30 09:01:57 51°11.963 2°46.793 250 14.1 247.5 12.9
2002-09-30 09:02:02 51°11.956 2°46.764 250.2 14.1 247.6 12.9
2002-09-30 09:02:07 51°11.948 2°46.735 250.2 14.1 247.7 12.9
2002-09-30 09:02:12 51°11.941 2°46.706 250.5 14.1 248 12.9
2002-09-30 09:02:17 51°11.934 2°46.677 250.3 14.1 248 12.9
2002-09-30 09:02:22 51°11.926 2°46.648 250.8 14.1 248.3 12.9
2002-09-30 09:02:26 51°11.921 2°46.625 250.8 14.1 248.3 12.9
2002-09-30 09:02:31 51°11.914 2°46.596 250.8 14.1 248.5 12.9
2002-09-30 09:02:37 51°11.905 2°46.562 251 14.1 248.6 12.9
2002-09-30 09:02:41 51°11.899 2°46.538 250.5 14.1 248.4 13
2002-09-30 09:02:47 51°11.89 2°46.504 250.3 14.1 248.1 13
2002-09-30 09:02:51 51°11.884 2°46.481 250.2 14.1 247.9 13
2002-09-30 09:02:57 51°11.875 2°46.446 250 14.1 247.8 13
2002-09-30 09:03:02 51°11.868 2°46.417 250.2 14.1 247.7 13
2002-09-30 09:03:07 51°11.86 2°46.388 250 14.1 247.7 12.9
2002-09-30 09:03:12 51°11.853 2°46.36 249.8 14.1 247.7 13
2002-09-30 09:03:17 51°11.846 2°46.331 250.2 14.1 247.8 13
2002-09-30 09:03:21 51°11.84 2°46.307 250.5 14.1 248.1 12.9
2002-09-30 09:03:27 51°11.831 2°46.273 250.3 14.1 248 13
2002-09-30 09:03:32 51°11.824 2°46.244 250.3 14.1 248.1 13
2002-09-30 09:03:37 51°11.816 2°46.215 250.7 14.1 248.2 13
2002-09-30 09:03:42 51°11.809 2°46.186 250.7 14.1 248.2 13
2002-09-30 09:03:47 51°11.802 2°46.157 250.5 14.1 248.4 13
2002-09-30 09:03:52 51°11.795 2°46.128 250.7 14.2 248.3 13
2002-09-30 09:03:57 51°11.787 2°46.099 250.7 14.1 248.4 13
2002-09-30 09:04:02 51°11.78 2°46.07 250.5 14.1 248.2 13
2002-09-30 09:04:06 51°11.774 2°46.047 250.3 14.2 248.2 13
2002-09-30 09:04:12 51°11.765 2°46.012 250 14.2 247.8 13
2002-09-30 09:04:17 51°11.758 2°45.983 249.5 14.2 247.4 13.1
2002-09-30 09:04:22 51°11.75 2°45.954 249 14.1 247 13
2002-09-30 09:04:27 51°11.742 2°45.926 248.3 14.1 246.6 13
2002-09-30 09:04:32 51°11.734 2°45.897 248.8 14.1 246.3 13
2002-09-30 09:04:37 51°11.727 2°45.868 249.8 14.2 247.4 13
2002-09-30 09:04:42 51°11.72 2°45.839 250.3 14.2 248 13
2002-09-30 09:04:47 51°11.712 2°45.81 251.2 14.2 248.7 13
2002-09-30 09:04:51 51°11.707 2°45.786 252 14.1 249.5 13
2002-09-30 09:04:57 51°11.699 2°45.751 252.2 14.1 249.9 12.9
2002-09-30 09:05:02 51°11.692 2°45.722 252.3 14.2 250 12.9
2002-09-30 09:05:07 51°11.685 2°45.692 252.7 14.2 250.4 13
2002-09-30 09:05:12 51°11.679 2°45.663 253 14.2 250.6 13
2002-09-30 09:05:17 51°11.672 2°45.633 253.3 14.2 251 13
2002-09-30 09:05:22 51°11.666 2°45.603 253.5 14.2 251.1 13
2002-09-30 09:05:27 51°11.66 2°45.574 253.7 14.2 251.4 13
2002-09-30 09:05:31 51°11.655 2°45.55 253.8 14.2 251.4 13
2002-09-30 09:05:37 51°11.648 2°45.514 254.2 14.2 251.8 13
2002-09-30 09:05:42 51°11.641 2°45.484 254.3 14.2 251.7 13
2002-09-30 09:05:47 51°11.635 2°45.455 254 14.2 251.8 13
2002-09-30 09:05:51 51°11.63 2°45.431 254 14.2 251.6 13
2002-09-30 09:05:57 51°11.622 2°45.395 254.2 14.2 251.6 13
2002-09-30 09:06:02 51°11.616 2°45.365 253.8 14.2 251.4 13
2002-09-30 09:06:07 51°11.61 2°45.336 253.5 14.2 251 13
2002-09-30 09:06:11 51°11.604 2°45.312 253.3 14.2 250.9 13
2002-09-30 09:06:17 51°11.597 2°45.276 253.5 14.2 251.1 13
2002-09-30 09:06:22 51°11.59 2°45.247 253.3 14.2 251 13
2002-09-30 09:06:27 51°11.584 2°45.217 253.8 14.2 251.2 12.9
2002-09-30 09:06:32 51°11.578 2°45.187 253.8 14.2 251.5 12.9
2002-09-30 09:06:37 51°11.572 2°45.158 253.7 14.2 251.3 12.9
2002-09-30 09:06:42 51°11.566 2°45.128 253.3 14.2 251.1 12.9
2002-09-30 09:06:47 51°11.559 2°45.098 253.5 14.2 250.9 12.9
2002-09-30 09:06:51 51°11.554 2°45.075 253.5 14.2 251 12.9
2002-09-30 09:06:57 51°11.547 2°45.039 253.8 14.2 251.2 12.9
2002-09-30 09:07:02 51°11.54 2°45.009 254 14.2 251.3 12.9
2002-09-30 09:07:06 51°11.535 2°44.985 253.8 14.2 251.4 12.9
2002-09-30 09:07:12 51°11.527 2°44.95 253.7 14.2 251.3 12.9
2002-09-30 09:07:17 51°11.521 2°44.92 253.8 14.2 251.3 12.9
2002-09-30 09:07:22 51°11.515 2°44.89 253.3 14.2 251.1 12.9
2002-09-30 09:07:26 51°11.51 2°44.866 253 14.2 250.7 12.9
2002-09-30 09:07:32 51°11.501 2°44.831 252.3 14.2 250 12.9
2002-09-30 09:07:37 51°11.494 2°44.802 251.8 14.2 249.7 12.8
2002-09-30 09:07:42 51°11.487 2°44.772 251.5 14.3 249.2 12.8
2002-09-30 09:07:47 51°11.48 2°44.743 251.3 14.2 248.9 12.9
2002-09-30 09:07:51 51°11.474 2°44.719 251.2 14.2 248.9 12.9
2002-09-30 09:07:57 51°11.466 2°44.684 251.5 14.2 249.1 12.8
2002-09-30 09:08:02 51°11.459 2°44.655 252 14.2 249.6 12.8
2002-09-30 09:08:06 51°11.454 2°44.631 252.5 14.3 250 12.8
2002-09-30 09:08:12 51°11.446 2°44.596 252.7 14.2 250.3 12.8
2002-09-30 09:08:17 51°11.439 2°44.566 252.8 14.2 250.4 12.8
2002-09-30 09:08:22 51°11.433 2°44.536 253 14.2 250.6 12.9
2002-09-30 09:08:27 51°11.426 2°44.507 253 14.2 250.7 12.8
2002-09-30 09:08:32 51°11.42 2°44.477 252.8 14.3 250.5 12.8
2002-09-30 09:08:37 51°11.413 2°44.447 252.5 14.2 250.4 12.9
2002-09-30 09:08:42 51°11.406 2°44.418 252 14.2 249.8 12.9
2002-09-30 09:08:46 51°11.401 2°44.394 251.8 14.3 249.7 12.9
2002-09-30 09:08:51 51°11.394 2°44.365 251.5 14.3 249.3 12.9
2002-09-30 09:08:57 51°11.385 2°44.33 251.3 14.2 249.1 12.8
2002-09-30 09:09:02 51°11.378 2°44.3 251.5 14.2 249.1 12.8
2002-09-30 09:09:06 51°11.373 2°44.277 251.8 14.2 249.4 12.8
2002-09-30 09:09:11 51°11.366 2°44.247 252.2 14.2 249.7 12.8
2002-09-30 09:09:17 51°11.358 2°44.212 252.8 14.3 250.3 12.8
2002-09-30 09:09:22 51°11.352 2°44.182 253.3 14.3 250.7 12.8
2002-09-30 09:09:27 51°11.345 2°44.152 253.7 14.2 251.3 12.8
2002-09-30 09:09:31 51°11.34 2°44.128 254 14.3 251.5 12.8
2002-09-30 09:09:37 51°11.333 2°44.092 254.3 14.3 251.8 12.8
2002-09-30 09:09:42 51°11.327 2°44.062 254.2 14.3 251.8 12.7
2002-09-30 09:09:47 51°11.321 2°44.032 253.8 14.3 251.7 12.8
2002-09-30 09:09:51 51°11.315 2°44.008 253.7 14.3 251.4 12.8
2002-09-30 09:09:57 51°11.308 2°43.972 253.7 14.3 251.4 12.8
2002-09-30 09:10:02 51°11.302 2°43.943 254 14.3 251.5 12.8
2002-09-30 09:10:07 51°11.295 2°43.913 253.5 14.3 251.4 12.8
2002-09-30 09:10:12 51°11.289 2°43.883 253.3 14.3 251.1 12.8
2002-09-30 09:10:17 51°11.282 2°43.853 253.2 14.3 250.9 12.8
2002-09-30 09:10:22 51°11.276 2°43.823 252.8 14.3 250.8 12.8
2002-09-30 09:10:27 51°11.269 2°43.794 252.5 14.3 250.4 12.8
2002-09-30 09:10:31 51°11.264 2°43.77 252.3 14.3 250.2 12.8
2002-09-30 09:10:37 51°11.255 2°43.734 251.8 14.3 249.7 12.8
2002-09-30 09:10:42 51°11.248 2°43.705 251.5 14.3 249.6 12.8
2002-09-30 09:10:47 51°11.241 2°43.675 251.7 14.3 249.3 12.8
2002-09-30 09:10:53 51°11.233 2°43.639 252 14.3 249.8 12.8
2002-09-30 09:10:57 51°11.228 2°43.616 252.2 14.3 249.8 12.8
2002-09-30 09:11:02 51°11.221 2°43.586 252.2 14.3 250.1 12.7
2002-09-30 09:11:07 51°11.214 2°43.556 252.5 14.3 250.2 12.8
2002-09-30 09:11:12 51°11.208 2°43.526 252.7 14.3 250.4 12.7
2002-09-30 09:11:17 51°11.201 2°43.497 252.5 14.3 250.4 12.7
2002-09-30 09:11:22 51°11.194 2°43.467 252.3 14.3 250.2 12.7
2002-09-30 09:11:27 51°11.187 2°43.437 252 14.3 250 12.7
2002-09-30 09:11:32 51°11.181 2°43.407 251.8 14.3 249.7 12.7
2002-09-30 09:11:37 51°11.174 2°43.378 252.2 14.3 249.9 12.7
2002-09-30 09:11:42 51°11.167 2°43.348 252.3 14.3 250.1 12.7
2002-09-30 09:11:47 51°11.16 2°43.318 252.7 14.3 250.3 12.8
2002-09-30 09:11:52 51°11.154 2°43.288 252.8 14.3 250.6 12.7
2002-09-30 09:11:57 51°11.147 2°43.258 253 14.3 251 12.7
2002-09-30 09:12:02 51°11.141 2°43.229 253.3 14.3 251.1 12.7
2002-09-30 09:12:07 51°11.134 2°43.199 253.5 14.3 251.3 12.7
2002-09-30 09:12:12 51°11.128 2°43.169 253.3 14.3 251.3 12.7
2002-09-30 09:12:17 51°11.122 2°43.139 253.3 14.3 251.3 12.7
2002-09-30 09:12:22 51°11.115 2°43.109 253.3 14.3 251.3 12.7
2002-09-30 09:12:27 51°11.109 2°43.08 253.2 14.2 251.2 12.7
2002-09-30 09:12:33 51°11.101 2°43.044 253.5 14.2 251.3 12.7
2002-09-30 09:12:37 51°11.096 2°43.02 253.3 14.3 251.2 12.7
2002-09-30 09:12:42 51°11.09 2°42.99 253.5 14.3 251.4 12.8
2002-09-30 09:12:47 51°11.083 2°42.96 253.5 14.3 251.3 12.8
2002-09-30 09:12:51 51°11.078 2°42.936 253.3 14.3 251.3 12.7
2002-09-30 09:12:57 51°11.071 2°42.901 253.2 14.2 251.2 12.8
2002-09-30 09:13:02 51°11.064 2°42.871 252.8 14.3 250.9 12.7
2002-09-30 09:13:06 51°11.059 2°42.847 252.7 14.3 250.7 12.7
2002-09-30 09:13:12 51°11.051 2°42.811 252.5 14.3 250.4 12.7
2002-09-30 09:13:16 51°11.046 2°42.788 252.2 14.2 250.3 12.7
2002-09-30 09:13:22 51°11.037 2°42.752 251.8 14.2 249.9 12.7
2002-09-30 09:13:27 51°11.031 2°42.723 251.5 14.2 249.7 12.7
2002-09-30 09:13:33 51°11.022 2°42.687 251.7 14.2 249.6 12.7
2002-09-30 09:13:37 51°11.017 2°42.664 252 14.3 250 12.7
2002-09-30 09:13:42 51°11.01 2°42.634 252.8 14.3 250.6 12.6
2002-09-30 09:13:46 51°11.005 2°42.61 253 14.2 250.8 12.7
2002-09-30 09:13:51 51°10.999 2°42.581 253.2 14.2 251.1 12.7
2002-09-30 09:13:57 51°10.991 2°42.545 253.2 14.2 251.1 12.6
2002-09-30 09:14:02 51°10.985 2°42.515 253.5 14.3 251.5 12.7
2002-09-30 09:14:07 51°10.979 2°42.485 253.8 14.3 251.4 12.6
2002-09-30 09:14:11 51°10.974 2°42.461 254.2 14.3 251.9 12.7
2002-09-30 09:14:17 51°10.967 2°42.425 254 14.3 252 12.7
2002-09-30 09:14:22 51°10.961 2°42.395 253.8 14.3 251.9 12.8
2002-09-30 09:14:27 51°10.954 2°42.365 253.7 14.3 251.7 12.6
2002-09-30 09:14:31 51°10.95 2°42.341 253.8 14.3 251.7 12.7
2002-09-30 09:14:37 51°10.942 2°42.306 254 14.3 251.7 12.7
2002-09-30 09:14:42 51°10.936 2°42.276 253.5 14.3 251.6 12.7
2002-09-30 09:14:47 51°10.929 2°42.246 253.3 14.3 251.4 12.6
2002-09-30 09:14:52 51°10.923 2°42.216 253.2 14.3 251.1 12.7
2002-09-30 09:14:57 51°10.917 2°42.186 252.8 14.3 250.8 12.8
2002-09-30 09:15:02 51°10.91 2°42.156 252.5 14.3 250.5 12.7
2002-09-30 09:15:07 51°10.903 2°42.127 252.3 14.3 250.3 12.7
2002-09-30 09:15:12 51°10.896 2°42.097 251.8 14.3 249.8 12.6
2002-09-30 09:15:17 51°10.889 2°42.068 251.3 14.2 249.6 12.7
2002-09-30 09:15:21 51°10.884 2°42.044 251.3 14.3 249.2 12.7
2002-09-30 09:15:27 51°10.875 2°42.009 251.7 14.3 249.6 12.6
2002-09-30 09:15:31 51°10.87 2°41.985 252 14.3 249.8 12.6
2002-09-30 09:15:37 51°10.862 2°41.949 252.3 14.3 250.2 12.7
2002-09-30 09:15:42 51°10.855 2°41.92 252.5 14.3 250.3 12.7
2002-09-30 09:15:47 51°10.848 2°41.89 252.5 14.3 250.4 12.7
2002-09-30 09:15:51 51°10.843 2°41.866 252.2 14.3 250.3 12.6
2002-09-30 09:15:55 51°10.838 2°41.842 252 14.3 250 12.5
2002-09-30 09:16:02 51°10.827 2°41.801 252 14.3 250 12.7
2002-09-30 09:16:07 51°10.821 2°41.771 251.8 14.4 250.1 12.7
2002-09-30 09:16:12 51°10.814 2°41.741 251.5 14.3 249.8 12.7
2002-09-30 09:16:17 51°10.807 2°41.712 251.5 14.3 249.7 12.7
2002-09-30 09:16:22 51°10.8 2°41.682 252.2 14.3 249.9 12.7
2002-09-30 09:16:27 51°10.794 2°41.652 252.7 14.3 250.5 12.7
2002-09-30 09:16:32 51°10.788 2°41.622 253.3 14.3 251.1 12.6
2002-09-30 09:16:37 51°10.782 2°41.592 253.7 14.4 251.6 12.7
2002-09-30 09:16:43 51°10.774 2°41.556 254.3 14.4 252.1 12.6
2002-09-30 09:16:46 51°10.77 2°41.538 254.5 14.4 252.4 12.7
2002-09-30 09:16:51 51°10.764 2°41.508 254.5 14.3 252.5 12.5
2002-09-30 09:16:57 51°10.757 2°41.471 254.7 14.4 252.5 12.6
2002-09-30 09:17:02 51°10.751 2°41.441 254 14.4 252.3 12.6
2002-09-30 09:17:07 51°10.744 2°41.411 253.7 14.4 251.9 12.6
2002-09-30 09:17:12 51°10.738 2°41.381 254 14.4 251.9 12.6
2002-09-30 09:17:14 51°10.736 2°41.369 253.7 14.4 251.9 12.6
2002-09-30 09:17:22 51°10.726 2°41.321 254 14.4 252 12.6
2002-09-30 09:17:26 51°10.721 2°41.297 254 14.4 252.1 12.5
2002-09-30 09:17:30 51°10.716 2°41.273 253.7 14.3 251.9 12.5
2002-09-30 09:17:37 51°10.707 2°41.231 253.5 14.3 251.7 12.5
2002-09-30 09:17:42 51°10.701 2°41.201 253.2 14.3 251.3 12.5
2002-09-30 09:17:47 51°10.694 2°41.17 253 14.4 251.2 12.5
2002-09-30 09:17:51 51°10.689 2°41.147 252.8 14.4 250.9 12.5
2002-09-30 09:17:57 51°10.681 2°41.111 252.5 14.3 250.7 12.6
2002-09-30 09:18:02 51°10.674 2°41.081 252.3 14.3 250.4 12.5
2002-09-30 09:18:07 51°10.668 2°41.051 252 14.3 250.2 12.6
2002-09-30 09:18:11 51°10.662 2°41.027 251.8 14.3 250 12.6
2002-09-30 09:18:17 51°10.654 2°40.992 251.7 14.4 249.9 12.5
2002-09-30 09:18:22 51°10.647 2°40.962 252 14.4 250 12.6
2002-09-30 09:18:27 51°10.64 2°40.932 252 14.4 250 12.5
2002-09-30 09:18:32 51°10.634 2°40.902 252.2 14.4 250.3 12.5
2002-09-30 09:18:37 51°10.627 2°40.872 252.3 14.4 250.4 12.7
2002-09-30 09:18:42 51°10.62 2°40.842 252.7 14.4 250.7 12.6
2002-09-30 09:18:47 51°10.614 2°40.812 252.7 14.4 250.7 12.7
2002-09-30 09:18:52 51°10.607 2°40.782 252.7 14.3 250.8 12.7
2002-09-30 09:18:57 51°10.601 2°40.752 252.5 14.4 250.8 12.7
2002-09-30 09:19:02 51°10.594 2°40.722 253 14.4 250.9 12.7
2002-09-30 09:19:07 51°10.588 2°40.692 253 14.4 251 12.8
2002-09-30 09:19:11 51°10.583 2°40.668 253.3 14.4 251.1 12.8
2002-09-30 09:19:17 51°10.575 2°40.632 253.5 14.3 251.4 12.8
2002-09-30 09:19:21 51°10.57 2°40.608 253.3 14.3 251.5 12.9
2002-09-30 09:19:27 51°10.562 2°40.572 253.3 14.3 251.4 12.9
2002-09-30 09:19:33 51°10.555 2°40.537 253 14.3 251.2 13
2002-09-30 09:19:37 51°10.55 2°40.513 253 14.3 251.2 13
2002-09-30 09:19:42 51°10.543 2°40.483 253.2 14.3 251.1 13.1
2002-09-30 09:19:47 51°10.537 2°40.454 252.8 14.3 251.1 13.1
2002-09-30 09:19:53 51°10.529 2°40.418 253 14.3 251 13.2
2002-09-30 09:19:57 51°10.524 2°40.394 253 14.3 251.1 13.2
2002-09-30 09:20:02 51°10.518 2°40.364 253.2 14.2 251.3 13.3
2002-09-30 09:20:07 51°10.511 2°40.334 253.3 14.2 251.4 13.3
2002-09-30 09:20:11 51°10.506 2°40.311 253.3 14.2 251.5 13.4
2002-09-30 09:20:17 51°10.499 2°40.275 253.7 14.2 251.6 13.4
2002-09-30 09:20:22 51°10.493 2°40.245 253.8 14.2 251.9 13.4
2002-09-30 09:20:27 51°10.487 2°40.215 254 14.2 252 13.4
2002-09-30 09:20:31 51°10.482 2°40.191 254 14.2 252.1 13.5
2002-09-30 09:20:37 51°10.474 2°40.156 253.7 14.2 251.9 13.5
2002-09-30 09:20:42 51°10.468 2°40.126 253.2 14.2 251.6 13.5
2002-09-30 09:20:47 51°10.462 2°40.096 253 14.2 251.3 13.5
2002-09-30 09:20:52 51°10.455 2°40.067 252.7 14.2 250.8 13.6
2002-09-30 09:20:57 51°10.449 2°40.037 252.3 14.2 250.6 13.6
2002-09-30 09:21:02 51°10.442 2°40.008 251.8 14.2 250.3 13.6
2002-09-30 09:21:07 51°10.435 2°39.978 251.5 14.2 249.9 13.6
2002-09-30 09:21:11 51°10.429 2°39.954 251.3 14.2 249.6 13.7
2002-09-30 09:21:17 51°10.421 2°39.919 251.2 14.2 249.4 13.7
2002-09-30 09:21:22 51°10.414 2°39.89 251.3 14.2 249.4 13.7
2002-09-30 09:21:26 51°10.409 2°39.866 251.5 14.2 249.6 13.7
2002-09-30 09:21:32 51°10.401 2°39.831 252 14.2 250.1 13.7
2002-09-30 09:21:37 51°10.394 2°39.801 252.5 14.3 250.4 13.8
2002-09-30 09:21:42 51°10.388 2°39.771 252.7 14.2 250.9 13.8
2002-09-30 09:21:47 51°10.381 2°39.741 253.2 14.3 251.2 13.9
2002-09-30 09:21:50 51°10.377 2°39.723 253.5 14.3 251.6 14
2002-09-30 09:21:57 51°10.369 2°39.681 254 14.3 252 13.8
2002-09-30 09:22:02 51°10.363 2°39.652 254.3 14.3 252.3 14.1
2002-09-30 09:22:07 51°10.357 2°39.622 254.7 14.3 252.5 14.1
2002-09-30 09:22:12 51°10.351 2°39.592 254.7 14.2 252.7 14.1
2002-09-30 09:22:17 51°10.345 2°39.562 254.2 14.2 252.4 14.3
2002-09-30 09:22:22 51°10.339 2°39.532 253.7 14.2 251.9 14.4
2002-09-30 09:22:27 51°10.332 2°39.502 253.5 14.3 251.6 14.3
2002-09-30 09:22:32 51°10.326 2°39.472 253.3 14.3 251.5 14.4
2002-09-30 09:22:37 51°10.32 2°39.442 253 14.3 251.3 14.5
2002-09-30 09:22:42 51°10.313 2°39.412 252.7 14.3 251 14.5
2002-09-30 09:22:47 51°10.307 2°39.382 252.7 14.3 250.8 14.6
2002-09-30 09:22:51 51°10.302 2°39.359 252.2 14.3 250.4 14.8
2002-09-30 09:22:57 51°10.293 2°39.323 251.8 14.3 250.1 14.8
2002-09-30 09:23:02 51°10.287 2°39.293 251.5 14.3 249.8 14.8
2002-09-30 09:23:07 51°10.28 2°39.264 251.3 14.3 249.6 14.9
2002-09-30 09:23:12 51°10.273 2°39.234 251.5 14.3 249.5 15
2002-09-30 09:23:17 51°10.266 2°39.205 251.7 14.3 249.7 15.1
2002-09-30 09:23:22 51°10.259 2°39.175 252 14.2 250 14.9
2002-09-30 09:23:27 51°10.253 2°39.145 252.3 14.2 250.5 14.8
2002-09-30 09:23:32 51°10.246 2°39.116 254.2 14.2 251.5 14.8
2002-09-30 09:23:37 51°10.241 2°39.085 255.8 14.3 253.4 14.9
2002-09-30 09:23:42 51°10.236 2°39.055 257 14.2 254.5 15.1
2002-09-30 09:23:46 51°10.232 2°39.03 258 14.2 256 15
2002-09-30 09:23:51 51°10.228 2°39 260.5 14.2 257.3 15
2002-09-30 09:23:57 51°10.224 2°38.963 263.3 14.2 260.3 15.1
2002-09-30 09:24:02 51°10.222 2°38.932 265.8 14.2 262.7 15.3
2002-09-30 09:24:07 51°10.221 2°38.9 267.8 14.2 264.9 15.3
2002-09-30 09:24:11 51°10.22 2°38.875 269.5 14.2 266.6 15.2
2002-09-30 09:24:17 51°10.219 2°38.838 270.7 14.2 267.7 15.2
2002-09-30 09:24:22 51°10.219 2°38.807 271.5 14.2 268.7 15.3
2002-09-30 09:24:27 51°10.218 2°38.775 272 14.2 268.9 15.4
2002-09-30 09:24:31 51°10.218 2°38.75 271.7 14.1 268.6 15.6
2002-09-30 09:24:37 51°10.216 2°38.713 266 14 265 15.7
2002-09-30 09:24:42 51°10.211 2°38.684 258.5 13.8 258 15.6
2002-09-30 09:24:47 51°10.204 2°38.656 251.2 13.7 250.7 15.7
2002-09-30 09:24:52 51°10.194 2°38.63 242.7 13.5 243.3 15.6
2002-09-30 09:24:57 51°10.184 2°38.605 238.3 13.6 237.9 15.5
2002-09-30 09:25:01 51°10.175 2°38.585 236.2 13.7 235.3 15.7
2002-09-30 09:25:07 51°10.161 2°38.556 234.3 13.7 233.1 15.7
2002-09-30 09:25:13 51°10.147 2°38.528 231.3 13.7 231.2 15.8
2002-09-30 09:25:17 51°10.136 2°38.511 227.2 13.7 227.4 16
2002-09-30 09:25:22 51°10.122 2°38.49 224.5 13.8 224.5 15.6
2002-09-30 09:25:27 51°10.108 2°38.47 222.5 13.9 222.2 15.5
2002-09-30 09:25:31 51°10.096 2°38.454 220.2 13.9 220.1 15.5
2002-09-30 09:25:37 51°10.078 2°38.431 219.5 13.9 219.3 15.9
2002-09-30 09:25:42 51°10.063 2°38.412 220.5 13.9 219.4 15.9
2002-09-30 09:25:47 51°10.048 2°38.391 221.3 13.9 219.9 15.9
2002-09-30 09:25:52 51°10.034 2°38.372 222 13.6 221 16
2002-09-30 09:25:57 51°10.021 2°38.353 222.7 13.2 221.6 15.8
2002-09-30 09:26:02 51°10.008 2°38.335 223.3 12.4 222.1 15.7
2002-09-30 09:26:06 51°9.999 2°38.321 223.5 11.6 222.4 15.6
2002-09-30 09:26:12 51°9.986 2°38.302 223.3 10.9 222.4 15.7
2002-09-30 09:26:17 51°9.975 2°38.287 222.5 10.3 221.9 15.7
2002-09-30 09:26:21 51°9.967 2°38.276 221 9.7 221 15.7
2002-09-30 09:26:27 51°9.956 2°38.262 219.2 9.1 219.5 15.7
2002-09-30 09:26:31 51°9.948 2°38.253 216.5 8.6 217.4 15.7
2002-09-30 09:26:37 51°9.937 2°38.241 213.5 8.1 214.8 15.6
2002-09-30 09:26:42 51°9.928 2°38.232 210.3 7.6 212.3 15.6
2002-09-30 09:26:47 51°9.92 2°38.225 207.8 7.2 209.5 15.5
2002-09-30 09:26:52 51°9.912 2°38.218 205.2 6.8 207.4 15.5
2002-09-30 09:26:57 51°9.903 2°38.212 203 6.5 205.3 15.4
2002-09-30 09:27:02 51°9.896 2°38.207 200.7 6.2 203.8 15.1
2002-09-30 09:27:07 51°9.888 2°38.202 199 6 202.3 15.4
2002-09-30 09:27:12 51°9.881 2°38.198 197 5.6 200.4 15.3
2002-09-30 09:27:17 51°9.874 2°38.194 195.2 5.4 198.6 15.3
2002-09-30 09:27:21 51°9.868 2°38.192 193.3 5.2 197.4 15.2
2002-09-30 09:27:27 51°9.86 2°38.188 192.5 5 196.4 15.1
2002-09-30 09:27:32 51°9.854 2°38.185 193 4.8 196.9 15
2002-09-30 09:27:37 51°9.848 2°38.182 194.3 4.6 197.6 15
2002-09-30 09:27:42 51°9.842 2°38.178 195.5 4.4 199.2 15
2002-09-30 09:27:46 51°9.838 2°38.176 196.5 4.2 200.2 14.9
2002-09-30 09:27:52 51°9.832 2°38.172 197.2 4 201.9 14.9
2002-09-30 09:27:57 51°9.827 2°38.169 198 3.9 202.7 14.8
2002-09-30 09:28:01 51°9.823 2°38.166 198.5 3.8 203.9 14.8
2002-09-30 09:28:07 51°9.818 2°38.162 199.2 3.6 204.8 14.8
2002-09-30 09:28:13 51°9.812 2°38.158 199.8 3.5 205.8 14.7
2002-09-30 09:28:17 51°9.809 2°38.155 200.3 3.4 206.9 14.7
2002-09-30 09:28:22 51°9.805 2°38.151 201 3.3 208 14.6
2002-09-30 09:28:27 51°9.801 2°38.148 201.8 3.2 209.5 14.6
2002-09-30 09:28:31 51°9.798 2°38.145 202.7 3.1 210.3 14.6
2002-09-30 09:28:37 51°9.794 2°38.141 203.5 3 211.8 14.6
2002-09-30 09:28:42 51°9.791 2°38.137 204.3 3 213.3 14.5
2002-09-30 09:28:47 51°9.788 2°38.134 205 2.9 214.7 14.5
2002-09-30 09:28:53 51°9.784 2°38.129 205.8 2.8 216.3 14.5
2002-09-30 09:28:57 51°9.782 2°38.127 206.3 2.7 216.6 14.4
2002-09-30 09:29:02 51°9.779 2°38.123 207.2 2.7 217.2 14.4
2002-09-30 09:29:07 51°9.776 2°38.119 207.7 2.6 218.8 14.4
2002-09-30 09:29:11 51°9.774 2°38.116 208.5 2.6 219.5 14.4
2002-09-30 09:29:15 51°9.772 2°38.113 209.2 2.5 220.8 14.4
2002-09-30 09:29:22 51°9.768 2°38.108 209.8 2.5 221.8 14.4
2002-09-30 09:29:27 51°9.766 2°38.105 210.7 2.4 222.8 14.4
2002-09-30 09:29:32 51°9.764 2°38.101 211.5 2.4 224.4 14.4
2002-09-30 09:29:35 51°9.762 2°38.099 212.3 2.3 225.6 14.3
2002-09-30 09:29:42 51°9.759 2°38.094 213.2 2.3 227.4 14.3
2002-09-30 09:29:47 51°9.757 2°38.09 214 2.3 228.1 14.3
2002-09-30 09:29:51 51°9.755 2°38.087 214.8 2.3 229 14.2
2002-09-30 09:29:57 51°9.753 2°38.083 215.8 2.2 229.4 14.3
2002-09-30 09:30:02 51°9.751 2°38.079 216.7 2.2 231.1 14.3
2002-09-30 09:30:07 51°9.749 2°38.075 217.5 2.1 231.9 14.3
2002-09-30 09:30:12 51°9.747 2°38.072 218.2 2.1 233.4 14.2
2002-09-30 09:30:15 51°9.746 2°38.069 219 2.1 234 14.3
2002-09-30 09:30:23 51°9.743 2°38.064 219.7 2.1 234.5 14.3
2002-09-30 09:30:27 51°9.741 2°38.061 220.2 2 235 14.3
2002-09-30 09:30:30 51°9.74 2°38.058 220.8 2 236.1 14.3
2002-09-30 09:30:37 51°9.738 2°38.053 221.3 2 236.7 14.3
2002-09-30 09:30:42 51°9.737 2°38.05 221.8 2 237.6 14.2
2002-09-30 09:30:46 51°9.735 2°38.047 222.3 2 238.3 14.2
2002-09-30 09:30:52 51°9.734 2°38.043 222.8 1.9 239.2 14.2
2002-09-30 09:30:57 51°9.732 2°38.039 223.3 1.9 240 14.2
2002-09-30 09:31:02 51°9.731 2°38.035 223.8 1.9 240.7 14.3
2002-09-30 09:31:07 51°9.73 2°38.031 224.2 1.9 241.6 14.3
2002-09-30 09:31:12 51°9.729 2°38.028 224.8 1.9 242.1 14.3
2002-09-30 09:31:17 51°9.728 2°38.024 225.3 1.8 242.9 14.3
2002-09-30 09:31:22 51°9.727 2°38.02 225.8 1.8 243.8 14.3
2002-09-30 09:31:27 51°9.726 2°38.017 226.3 1.8 244.2 14.3
2002-09-30 09:31:31 51°9.725 2°38.014 226.8 1.8 244.6 14.3
2002-09-30 09:31:37 51°9.724 2°38.01 227.5 1.8 246.2 14.3
2002-09-30 09:31:42 51°9.723 2°38.006 228 1.7 246.4 14.3
2002-09-30 09:31:47 51°9.722 2°38.003 228.3 1.7 247.3 14.3
2002-09-30 09:31:52 51°9.721 2°37.999 229 1.7 247.6 14.3
2002-09-30 09:31:57 51°9.721 2°37.996 229.3 1.7 248.5 14.3
2002-09-30 09:32:02 51°9.72 2°37.992 229.8 1.7 248.8 14.3
2002-09-30 09:32:07 51°9.719 2°37.989 230 1.7 249.7 14.3
2002-09-30 09:32:12 51°9.718 2°37.986 230.3 1.6 249.8 14.3
2002-09-30 09:32:17 51°9.717 2°37.982 230.3 1.6 250 14.3
2002-09-30 09:32:21 51°9.717 2°37.979 230.8 1.6 250.3 14.3
2002-09-30 09:32:27 51°9.716 2°37.975 231 1.6 251 14.3
2002-09-30 09:32:31 51°9.715 2°37.973 231.2 1.6 251.4 14.3
2002-09-30 09:32:35 51°9.715 2°37.97 231.7 1.6 252.3 14.3
2002-09-30 09:32:42 51°9.714 2°37.965 231.8 1.6 252.6 14.4
2002-09-30 09:32:47 51°9.713 2°37.962 232.2 1.6 252.6 14.4
2002-09-30 09:32:52 51°9.713 2°37.959 232.3 1.6 253.4 14.3
2002-09-30 09:32:57 51°9.712 2°37.955 232.7 1.6 253.7 14.4
2002-09-30 09:33:02 51°9.712 2°37.952 233 1.6 255.2 14.4
2002-09-30 09:33:07 51°9.711 2°37.949 233.3 1.5 254.5 14.4
2002-09-30 09:33:12 51°9.711 2°37.946 233.7 1.5 254.9 14.4
2002-09-30 09:33:14 51°9.71 2°37.944 233.8 1.5 254.5 14.4
2002-09-30 09:33:22 51°9.709 2°37.939 234.2 1.5 255.1 14.4
2002-09-30 09:33:27 51°9.709 2°37.936 234.5 1.5 255.9 14.4
2002-09-30 09:33:32 51°9.708 2°37.932 234.7 1.5 256.2 14.4
2002-09-30 09:33:37 51°9.708 2°37.929 234.7 1.5 255.8 14.4
2002-09-30 09:33:42 51°9.707 2°37.926 235 1.5 256.1 14.4
2002-09-30 09:33:46 51°9.707 2°37.924 235.3 1.5 255.8 14.4
2002-09-30 09:33:52 51°9.706 2°37.92 235.5 1.5 256.5 14.4
2002-09-30 09:33:57 51°9.706 2°37.917 235.8 1.5 257.1 14.4
2002-09-30 09:34:02 51°9.705 2°37.913 236 1.5 257.4 14.4
2002-09-30 09:34:08 51°9.705 2°37.91 236.2 1.5 257.7 14.4
2002-09-30 09:34:11 51°9.705 2°37.908 236.5 1.4 258.3 14.5
2002-09-30 09:34:18 51°9.704 2°37.904 236.8 1.4 259.3 14.5
2002-09-30 09:34:22 51°9.704 2°37.901 237 1.4 258.8 14.4
2002-09-30 09:34:27 51°9.703 2°37.898 237.2 1.4 259.5 14.4
2002-09-30 09:34:33 51°9.703 2°37.894 237.7 1.4 259.2 14.4
2002-09-30 09:34:37 51°9.703 2°37.892 237.8 1.4 259.7 14.5
2002-09-30 09:34:42 51°9.702 2°37.889 238.2 1.4 259.2 14.5
2002-09-30 09:34:47 51°9.702 2°37.886 238.3 1.4 260 14.5
2002-09-30 09:34:52 51°9.702 2°37.883 238.7 1.4 261.1 14.5
2002-09-30 09:34:57 51°9.701 2°37.88 238.8 1.4 260.9 14.5
2002-09-30 09:35:02 51°9.701 2°37.877 238.8 1.4 261.3 14.5
2002-09-30 09:35:07 51°9.701 2°37.874 238.8 1.4 260.3 14.5
2002-09-30 09:35:11 51°9.7 2°37.872 238.8 1.4 260.1 14.5
2002-09-30 09:35:17 51°9.7 2°37.868 239 1.4 259.8 14.5
2002-09-30 09:35:21 51°9.7 2°37.866 238.8 1.4 261.9 14.6
2002-09-30 09:35:27 51°9.699 2°37.862 239.2 1.4 260.8 14.6
2002-09-30 09:35:31 51°9.699 2°37.86 239.2 1.4 261.7 14.6
2002-09-30 09:35:37 51°9.699 2°37.856 239.2 1.4 260.9 14.6
2002-09-30 09:35:42 51°9.699 2°37.854 239.3 1.4 262.2 14.6
2002-09-30 09:35:47 51°9.698 2°37.851 239.3 1.3 260.3 14.6
2002-09-30 09:35:53 51°9.698 2°37.847 239.2 1.4 262.6 14.6
2002-09-30 09:35:57 51°9.698 2°37.845 239.3 1.4 261.8 14.6
2002-09-30 09:36:01 51°9.698 2°37.842 239.3 1.3 262.7 14.5
2002-09-30 09:36:07 51°9.697 2°37.839 239.3 1.3 261.6 14.6
2002-09-30 09:36:12 51°9.697 2°37.836 239.3 1.3 262.1 14.6
2002-09-30 09:36:18 51°9.697 2°37.833 239.5 1.3 260.6 14.6
2002-09-30 09:36:23 51°9.696 2°37.83 239.3 1.3 261.9 14.6
2002-09-30 09:36:28 51°9.696 2°37.827 239.5 1.3 261.2 14.6
2002-09-30 09:36:31 51°9.696 2°37.825 239.5 1.3 261.8 14.6
2002-09-30 09:36:37 51°9.696 2°37.822 239.7 1.3 262.4 14.6
2002-09-30 09:36:42 51°9.696 2°37.819 239.7 1.3 262.5 14.7
2002-09-30 09:36:46 51°9.696 2°37.816 239.8 1.3 263.1 14.7
2002-09-30 09:36:50 51°9.695 2°37.814 239.8 1.3 262 14.7
2002-09-30 09:36:57 51°9.695 2°37.81 239.8 1.3 262.9 14.7
2002-09-30 09:37:02 51°9.695 2°37.807 239.8 1.3 262.1 14.7